Theta_e
321 326 327 328 324 329 328 328 329 330 330 330 330 330 331 329 329 327 322 321 321 323 321 320 318 320 321
318 322 323 325 327 328 326 326 328 329 329 329 329 329 330 329 328 324 322 321 316 320 321 319 318 319 321
316 317 322 322 326 325 325 327 325 327 329 328 329 329 330 329 327 323 322 320 314 313 313 318 318 318 319
314 316 318 322 322 322 325 326 327 322 327 326 328 328 329 330 326 323 319 317 314 313 314 318 318 318 318
309 313 315 317 320 322 320 322 326 327 324 326 328 329 330 329 327 325 321 317 315 316 318 317 317 317 317
306 309 311 314 316 317 320 320 322 326 322 326 327 329 330 329 325 325 321 319 319 316 318 318 318 318 318
302 305 309 311 314 315 317 318 319 323 323 324 326 329 329 329 323 325 320 320 321 320 319 318 318 318 318
301 302 306 309 312 313 315 317 318 322 322 322 325 329 328 328 323 324 320 322 323 321 320 319 318 318 319
301 302 303 308 311 312 312 316 319 320 322 323 325 328 328 328 325 323 321 323 323 321 320 319 319 319 319
301 301 302 307 311 312 313 315 317 319 323 320 322 327 327 327 324 321 322 324 323 321 321 320 320 320 320
300 300 302 308 310 311 313 314 316 318 323 323 321 324 326 327 324 322 324 324 322 321 320 321 321 321 322
299 299 301 306 307 309 311 313 315 320 323 324 323 323 325 326 325 323 321 321 321 320 320 321 321 322 323
299 299 299 300 305 308 310 311 315 321 324 324 323 323 325 325 325 324 321 320 319 319 320 321 322 322 323
298 298 298 299 303 304 308 309 315 317 323 325 324 323 323 324 325 323 321 320 319 320 321 321 318 320 320
297 298 298 300 302 302 304 308 312 315 317 324 322 320 322 323 324 324 322 321 320 321 321 321 316 315 315
297 297 298 298 298 300 301 305 314 311 319 323 322 321 322 325 325 322 321 320 321 321 322 322 321 318 314
Wind_Speed
12 2 1 4 12 9 2 2 4 7 10 13 17 18 19 18 19 17 14 13 16 17 17 14 9 12 13
10 8 4 2 2 12 3 5 5 5 8 13 16 17 19 20 18 17 16 14 14 16 16 14 11 13 11
10 10 5 4 2 5 9 7 8 7 7 10 17 20 22 22 19 16 15 13 13 15 16 17 13 11 8
8 9 6 4 3 6 10 14 9 12 8 10 13 21 23 22 21 19 16 13 14 16 18 14 12 11 9
9 8 6 5 3 4 6 7 7 10 10 10 13 21 25 24 25 22 18 14 13 16 15 13 11 9 7
11 8 9 6 6 7 6 6 10 7 12 10 14 23 28 31 28 24 20 17 13 12 10 12 10 9 7
12 10 9 9 8 7 9 8 6 12 15 15 13 21 29 31 28 26 22 21 15 11 10 9 10 9 7
14 10 9 11 8 8 10 10 7 12 21 19 15 22 27 30 27 25 25 22 18 15 11 10 10 8 7
16 13 11 7 8 9 12 9 14 11 23 26 24 25 29 29 27 27 24 21 19 17 14 12 9 7 7
15 16 12 9 6 9 10 11 12 14 25 30 26 26 29 30 30 27 26 22 21 19 16 13 10 8 7
16 17 12 6 5 8 9 10 12 19 29 34 27 25 28 30 34 32 28 27 22 20 15 12 10 8 7
15 16 9 4 6 6 8 10 11 12 30 36 31 27 27 32 32 32 30 25 22 20 16 14 13 10 9
14 16 14 9 6 6 9 10 12 6 26 35 33 31 31 32 35 33 29 25 22 19 15 11 12 10 9
13 10 12 13 6 6 9 11 12 4 12 33 31 30 28 30 29 32 30 25 20 21 11 8 1 2 5
11 11 11 5 5 8 13 12 12 11 12 25 25 23 24 28 35 31 28 29 22 23 16 6 2 3 6
10 10 10 9 7 10 12 12 10 13 18 16 21 23 24 22 28 29 28 28 25 23 17 12 3 5 3
Wind_Direction
356 1 84 162 183 228 186 265 237 216 197 192 187 182 175 170 161 151 150 152 153 155 155 145 111 111 125
9 352 328 302 155 195 167 251 242 220 220 204 195 194 180 176 167 156 156 154 155 158 159 151 115 109 107
12 356 352 335 230 207 203 254 251 262 245 224 209 196 186 182 165 155 158 158 151 146 146 138 123 127 121
356 352 344 324 315 293 228 245 229 230 264 257 226 203 195 187 169 161 164 161 153 139 141 135 124 128 134
340 327 330 320 292 309 300 275 257 214 246 295 233 200 193 183 166 163 161 158 151 145 138 136 131 145 147
326 327 313 307 303 273 286 304 267 231 195 320 240 197 188 176 173 171 167 155 150 145 141 143 145 141 145
333 323 315 302 285 290 290 264 282 234 206 220 244 202 190 182 174 172 170 161 168 162 162 163 160 152 149
341 329 317 311 294 296 296 277 258 235 220 208 230 204 196 185 186 184 175 165 165 170 173 180 173 168 169
336 328 315 316 299 296 312 290 258 239 223 207 213 209 202 198 190 184 177 177 173 177 181 184 187 187 204
337 326 312 301 293 291 303 295 274 259 225 219 215 210 204 197 191 183 181 179 175 181 180 187 198 206 224
337 327 318 300 280 299 315 318 303 263 216 214 205 203 207 200 187 186 182 185 181 183 181 184 194 210 226
336 334 328 304 303 314 332 334 330 249 212 206 206 202 202 192 186 185 185 187 191 184 182 197 201 217 226
343 350 346 332 333 349 352 343 11 200 200 207 204 202 199 187 185 189 184 181 183 181 180 170 192 215 225
343 352 329 316 337 348 359 6 30 17 190 195 197 190 201 195 184 188 182 180 186 187 174 147 182 116 184
344 347 351 319 352 9 18 17 38 43 97 177 180 183 198 203 178 183 185 182 175 182 186 153 122 187 138
350 5 13 0 346 356 4 17 44 37 85 134 172 180 184 183 180 184 183 185 183 182 187 207 203 147 155